User: anonymous   Login
Location: Unspecified
(0.0000°N, 0.0000°E)
Time: 22:47:59
(UTC+00:00)
Language:

PROBA 2 - Orbit

View from above orbital plane
View from above orbital plane
View from above satellite
View from above satellite

Ground track
Ground track

The orbit data is extracted from the following two-line orbital elements,

1 36037U 09059B   17058.17189644  .00000023  00000-0  16337-4 0  9992
2 36037  98.2554 253.3385 0012559 319.2957  40.7299 14.52987899388159
Epoch (UTC): 27 February 2017 04:07:31
Eccentricity: 0.0012559
inclination: 98.2554°
perigee height: 707 km
apogee height: 725 km
right ascension of ascending node: 253.3385°
argument of perigee: 319.2957°
revolutions per day: 14.52987899
mean anomaly at epoch: 40.7299°
orbit number at epoch: 38815

The dashed part of the orbit path shows where the satellite is in the earth's shadow,  

DLR